Header for Extended Forecast Station List Page

Search by: ID | Name | Date | Parm | Value | Avg | % Avg
Sort by: ID | Name | Date | Parm | Value | Avg | % Avg

Enter search or view all records.

Click on id for station plot
#IDNameDateParmValueAvg% Avg
0LEOI1KOOTENAI-AT LEONIA05-20-2019DISCHARGE (KAF)2897467162
1FCFM8NF FLATHEAD-NEAR COLUMBIA FALLS05-20-2019DISCHARGE (KAF)866125869
2WGCM8MF FLATHEAD-NEAR WEST GLACIER05-20-2019DISCHARGE (KAF)939121178
3CFMM8FLATHEAD-AT COLUMBIA FALLS05-20-2019DISCHARGE (KAF)2750323885
4DLGM8CLARK FORK-AT DEER LODGE05-20-2019DISCHARGE (KAF)8859149
5DRMM8CLARK FORK-NR DRUMMOND05-20-2019DISCHARGE (KAF)294MM
6RCCM8ROCK CREEK-NEAR CLINTON05-20-2019DISCHARGE (KAF)231216107
7BONM8BLACKFOOT-NEAR BONNER05-20-2019DISCHARGE (KAF)57561194
8ABOM8CLARK FORK-ABOVE MISSOULA05-20-2019DISCHARGE (KAF)11481098105
9BITM8BITTERROOT-NEAR MISSOULA05-20-2019DISCHARGE (KAF)78495782
10BELM8CLARK FORK-BELOW MISSOULA05-20-2019DISCHARGE (KAF)1940209493
11STRM8ST. REGIS-NEAR ST. REGIS05-20-2019DISCHARGE (KAF)11413485
12SRGM8CLARK FORK-AT ST REGIS05-20-2019DISCHARGE (KAF)2473273690
13PRTI1PRIEST-NEAR PRIEST RIVER05-20-2019DISCHARGE (KAF)33249068
14SPOW1SPOKANE-AT SPOKANE05-20-2019DISCHARGE (KAF)766MM
15SATI1ST MARIES-NEAR SANTA05-20-2019DISCHARGE (KAF)325064
16CIBW1COLUMBIA-AT INTL BOUNDARY05-20-2019DISCHARGE (KAF)25557MM
17LAUW1KETTLE-AT LAURIER05-20-2019DISCHARGE (KAF)656109260
18TONW1OKANOGAN-NEAR TONASKET05-20-2019DISCHARGE (KAF)512115444
19PATW1METHOW-NEAR PATEROS05-20-2019DISCHARGE (KAF)32764751
20ARDW1ENTIAT-NEAR ARDENVOIR05-20-2019DISCHARGE (KAF)7915950
21PESW1WENATCHEE-AT PESHASTIN05-20-2019DISCHARGE (KAF)676106563
22EASW1YAKIMA-AT EASTON05-20-2019DISCHARGE (KAF)788592
23TNAW1TEANAWAY-BELOW FORKS05-20-2019DISCHARGE (KAF)274462
24UMTW1YAKIMA-AT UMTANUM05-20-2019DISCHARGE (KAF)30179138
25CLFW1NACHES-NEAR CLIFFDEL05-20-2019DISCHARGE (KAF)14024258
26NACW1NACHES-NEAR NACHES05-20-2019DISCHARGE (KAF)16735747
27PARW1YAKIMA-NEAR PARKER05-20-2019DISCHARGE (KAF)13526252
28KIOW1YAKIMA-AT KIONA05-20-2019DISCHARGE (KAF)37559763
29CHEI1FALL RIVER-NEAR CHESTER05-20-2019DISCHARGE (KAF)284226126
30ANTI1HENRYS FORK-AT ST. ANTHONY05-20-2019DISCHARGE (KAF)581479121
31TEAI1TETON-NEAR ST. ANTHONY05-20-2019DISCHARGE (KAF)393316124
32REXI1HENRYS FORK-AT REXBURG05-20-2019DISCHARGE (KAF)731563130
33JKSW4SNAKE-NEAR JACKSON05-20-2019DISCHARGE (KAF)1551164494
34ALPW4SNAKE-NEAR ALPINE05-20-2019DISCHARGE (KAF)1896203693
35HEII1SNAKE-NEAR HEISE05-20-2019DISCHARGE (KAF)2861293597
36SIFI1SNAKE-AB EAGLE ROCK NR IDAHO FALLS05-20-2019DISCHARGE (KAF)22362168103
37SHYI1SNAKE-NEAR SHELLEY05-20-2019DISCHARGE (KAF)19971847108
38SNAI1SNAKE-AT BLACKFOOT05-20-2019DISCHARGE (KAF)14211318108
39BFTI1SNAKE-NEAR BLACKFOOT05-20-2019DISCHARGE (KAF)13851203115
40PIHI1PORTNEUF-AT POCATELLO05-20-2019DISCHARGE (KAF)5035142
41MILI1SNAKE-AT MILNER05-20-2019DISCHARGE (KAF)142122116
42HOTI1BRUNEAU-NEAR HOT SPRINGS05-20-2019DISCHARGE (KAF)133102131
43SWAI1SNAKE-BELOW SWAN FALLS05-20-2019DISCHARGE (KAF)1975200598
44HWRI1BIG LOST-AT HOWELL RANCH NEAR CHILLY05-20-2019DISCHARGE (KAF)196145135
45HALI1BIG WOOD-AT HAILEY05-20-2019DISCHARGE (KAF)216185117
46BIGI1BOISE-AT GLENWOOD BRIDGE05-20-2019DISCHARGE (KAF)432336129
47PARI1BOISE-NEAR PARMA05-20-2019DISCHARGE (KAF)415300138
48VALO3MALHEUR-NEAR VALE05-20-2019DISCHARGE (KAF)1818102
49EMMI1PAYETTE-NEAR EMMETT05-20-2019DISCHARGE (KAF)929875106
50WSRI1WEISER-NEAR WEISER05-20-2019DISCHARGE (KAF)186167111
51WEII1SNAKE-AT WEISER05-20-2019DISCHARGE (KAF)37743554106
52WHBI1SALMON-AT WHITEBIRD05-20-2019DISCHARGE (KAF)4116460089
53TRYO3GRANDE RONDE-TROY05-20-2019DISCHARGE (KAF)57568084
54ANAW1SNAKE-NEAR ANATONE05-20-2019DISCHARGE (KAF)8788952192
55ORFI1CLEARWATER-AT OROFINO05-20-2019DISCHARGE (KAF)2164284076
56SPDI1CLEARWATER-AT SPALDING05-20-2019DISCHARGE (KAF)4171420899
57TCHW1WALLA WALLA-NEAR TOUCHET05-20-2019DISCHARGE (KAF)6926267
58GIBO3UMATILLA-NEAR GIBBON05-20-2019DISCHARGE (KAF)3325134
59PDTO3UMATILLA-AT PENDLETON05-20-2019DISCHARGE (KAF)4235118
60MYKO3MCKAY CREEK-NEAR PILOT ROCK05-20-2019DISCHARGE (KAF)42166
61UMAO3UMATILLA-NEAR UMATILLA05-20-2019DISCHARGE (KAF)446701
62MONO3NF JOHN DAY-AT MONUMENT05-20-2019DISCHARGE (KAF)232208111
63SERO3JOHN DAY-AT SERVICE CK05-20-2019DISCHARGE (KAF)391289135
64MODO3DESCHUTES-AT MOODY NR BIGGS05-20-2019DISCHARGE (KAF)1119114997
65PITW1KLICKITAT-NEAR PITT05-20-2019DISCHARGE (KAF)25031579
66HODO3HOOD-NEAR TUCKER BRIDGE05-20-2019DISCHARGE (KAF)9813275
67UNDW1WHITE SALMON-NEAR UNDERWOOD05-20-2019DISCHARGE (KAF)16522573
68LYDM8KOOTENAI-LIBBY DAM05-20-2019INFLOW (KAF)3416525365
69HHWM8SF FLATHEAD-HUNGRY HORSE DAM05-20-2019INFLOW (KAF)1057137177
70KERM8FLATHEAD-KERR DAM05-20-2019INFLOW (KAF)3094401877
71NOXM8CLARK FORK-NOXON RAPIDS DAM05-20-2019INFLOW (KAF)5824692384
72CABI1CLARK FORK-CABINET GORGE DAM05-20-2019INFLOW (KAF)6391738687
73ALFW1PEND OREILLE-ALBENI FALLS DAM05-20-2019INFLOW (KAF)6835827683
74COEI1COEUR D ALENE-COEUR D ALENE LAKE05-20-2019INFLOW (KAF)720105468
75LLKW1SPOKANE-AT LONGLAKE05-20-2019INFLOW (KAF)955153762
76GCDW1COLUMBIA-GRAND COULEE DAM05-20-2019INFLOW (KAF)272373882470
77CHJW1COLUMBIA-CHIEF JOSEPH DAM05-20-2019INFLOW (KAF)252092918286
78WELW1COLUMBIA-WELLS DAM05-20-2019INFLOW (KAF)260793131183
79CHDW1CHELAN-LAKE CHELAN DAM05-20-2019INFLOW (KAF)41882051
80RRHW1COLUMBIA-ROCKY REACH DAM05-20-2019INFLOW (KAF)264093195783
81WANW1COLUMBIA-WANAPUM DAM05-20-2019INFLOW (KAF)271173857570
82PRWW1COLUMBIA-PRIEST RAPIDS DAM05-20-2019INFLOW (KAF)271283944369
83KEDW1YAKIMA-KEECHELUS LAKE05-20-2019INFLOW (KAF)336451
84KADW1KACHESS-KACHESS DAM05-20-2019INFLOW (KAF)265746
85CLUW1CLE ELUM-CLE ELUM LAKE05-20-2019INFLOW (KAF)11825746
86BUDW1BUMPING-BUMPING LAKE DAM05-20-2019INFLOW (KAF)418250
87RILW1TIETON-RIMROCK LAKE NEAR RIMROCK05-20-2019INFLOW (KAF)11215174
88IPDI1HENRYS FORK-ISLAND PARK DAM05-20-2019INFLOW (KAF)189188101
89JLKW4SNAKE-JACKSON LAKE AT DAM05-20-2019INFLOW (KAF)66667399
90PLDI1SF SNAKE-PALISADES DAM05-20-2019INFLOW (KAF)2667277796
91RIDI1WILLOW CREEK-RIRIE DAM05-20-2019INFLOW (KAF)3216204
92AFRI1SNAKE-AMERICAN FALLS RESERVOIR05-20-2019INFLOW (KAF)19661817108
93MACI1BIG LOST-MACKAY RESERVOIR NEAR MACKAY05-20-2019INFLOW (KAF)196143137
94MAGI1BIG WOOD-MAGIC DAM05-20-2019INFLOW (KAF)193134145
95LWRI1LITTLE WOOD-LITTLE WOOD DAM05-20-2019INFLOW (KAF)7046152
96OWYO3OWYHEE-OWYHEE DAM05-20-2019INFLOW (KAF)188101186
97ARAI1SF BOISE-ANDERSON RANCH DAM05-20-2019INFLOW (KAF)30431497
98LUCI1BOISE-LUCKY PEAK DAM05-20-2019INFLOW (KAF)1045MM
99WRMO3MALHEUR-WARM SPRINGS DAM05-20-2019INFLOW (KAF)336512
100BERO3MALHEUR-AGENCY VALLEY DAM05-20-2019INFLOW (KAF)3415226
101BULO3BULLY CREEK-BULLY CREEK DAM05-20-2019INFLOW (KAF)M0M
102CSDI1NF PAYETTE-CASCADE DAM05-20-2019INFLOW (KAF)355314113
103DEDI1DEADWOOD-NEAR LOWMAN05-20-2019INFLOW (KAF)929894
104BRNI1SNAKE-BROWNLEE DAM05-20-2019INFLOW (KAF)40853771108
105DWRI1NF CLEARWATER-DWORSHAK DAM05-20-2019INFLOW (KAF)1035149869
106LGDW1SNAKE-LOWER GRANITE DAM05-20-2019INFLOW (KAF)129591382694
107LGSW1SNAKE-LITTLE GOOSE DAM05-20-2019INFLOW (KAF)129371383094
108LMNW1SNAKE-LOWER MONUMENTAL DAM05-20-2019INFLOW (KAF)129731386594
109IHDW1SNAKE-ICE HARBOR DAM05-20-2019INFLOW (KAF)129801381194
110MCDW1COLUMBIA-MCNARY DAM05-20-2019INFLOW (KAF)408285451175
111JDAO3COLUMBIA-JOHN DAY DAM05-20-2019INFLOW (KAF)419835558576
112TDAO3COLUMBIA-THE DALLES DAM05-20-2019INFLOW (KAF)423204980985
113BONO3COLUMBIA-BONNEVILLE DAM05-20-2019INFLOW (KAF)428845092884
114HOPI1PEND OREILLE-PEND OREILLE LAKE NR HOPE05-20-2019LAKE ELEVATION (FT)MMM
115BFEI1KOOTENAI-AT BONNERS FERRY05-20-2019STAGE (FT)MMM
116SJMI1ST JOE-AT ST MARIES05-20-2019STAGE (FT)MMM